Location: Unspecified
(0.0000°N, 0.0000°E)
Time: 03:28:02
(UTC+00:00)

DIWATA 2B (PO-101) - Visible Passes

Search period start: 20 April 2026 00:00
Search period end: 30 April 2026 00:00
Orbit: 557 x 576 km, 98.1° (Epoch: 19 April)

Date Brightness Start Highest point End Pass type
(mag) Time Alt. Az. Time Alt. Az. Time Alt. Az.
20 Apr ? 18:38:18 10° N 18:42:11 43° WNW 18:46:05 10° SSW visible
21 Apr ? 18:39:02 10° N 18:42:54 43° WNW 18:46:47 10° SSW visible
22 Apr ? 18:39:46 10° N 18:43:37 42° WNW 18:47:29 10° SSW visible
23 Apr ? 18:40:29 10° N 18:44:20 41° WNW 18:48:12 10° SSW visible
24 Apr ? 18:41:13 10° N 18:45:03 40° WNW 18:48:54 10° SSW visible
25 Apr ? 18:41:55 10° N 18:45:45 40° WNW 18:49:35 10° SSW visible
26 Apr ? 18:42:38 10° N 18:46:27 39° WNW 18:50:16 10° SSW visible
27 Apr ? 18:43:21 10° N 18:47:09 38° WNW 18:50:58 10° SSW visible
28 Apr ? 18:44:03 10° N 18:47:50 38° WNW 18:51:38 10° SSW visible
29 Apr ? 18:44:46 10° N 18:48:32 37° WNW 18:52:19 10° SW visible
